CDT,Max TemperatureF,Mean TemperatureF,Min TemperatureF,Max Dew PointF,MeanDew PointF,Min DewpointF,Max Humidity, Mean Humidity, Min Humidity, Max Sea Level PressureIn, Mean Sea Level PressureIn, Min Sea Level PressureIn, Max VisibilityMiles, Mean VisibilityMiles, Min VisibilityMiles, Max Wind SpeedMPH, Mean Wind SpeedMPH, Max Gust SpeedMPH,PrecipitationIn, CloudCover, Events, WindDirDegrees
2013-8-1,86,75,64,64,63,61,94,72,45,30.13,30.08,30.04,10,10,7,9,5,,0.00,1,,352
2013-8-2,82,72,62,70,65,61,94,79,54,30.06,30.02,29.95,10,10,5,14,4,22,0.00,1,,184
2013-8-3,82,76,69,72,68,64,94,82,62,30.15,30.05,29.96,10,9,1,10,3,17,0.31,4,,358
2013-8-4,80,72,64,66,62,59,94,72,51,30.21,30.16,30.12,10,10,4,9,3,,0.00,1,,81
2013-8-5,71,68,64,70,64,61,100,88,78,30.14,30.03,29.93,10,8,0,12,4,,0.53,8,,166
2013-8-6,82,76,69,72,70,66,100,87,70,30.00,29.94,29.90,10,8,1,9,5,,0.02,3,,188
2013-8-7,82,76,69,72,69,64,94,85,66,30.01,29.93,29.87,10,10,5,20,6,37,0.75,3,Thunderstorm,205
2013-8-8,82,74,66,72,69,66,100,87,66,30.02,29.96,29.92,10,8,0,7,1,,0.31,5,Thunderstorm,272
2013-8-9,77,72,68,70,68,64,94,88,69,30.10,30.04,29.98,10,6,2,8,2,,0.85,4,Thunderstorm,62
2013-8-10,82,74,66,70,66,64,94,77,54,30.18,30.13,30.10,10,9,2,8,2,,0.08,4,,37
2013-8-11,84,73,62,70,65,59,94,74,55,30.18,30.14,30.08,10,10,7,7,2,,0.00,2,,75
2013-8-12,82,75,68,73,69,66,100,85,69,30.11,30.03,29.97,10,8,2,17,2,30,0.02,3,Thunderstorm,276
2013-8-13,78,72,66,70,63,57,100,75,47,30.14,30.05,29.99,10,10,5,12,4,16,0.00,1,,6
2013-8-14,71,63,53,55,51,48,94,66,43,30.22,30.18,30.14,10,10,10,14,6,18,0.00,1,,47
2013-8-15,73,60,48,54,51,46,94,71,46,30.19,30.15,30.10,10,10,2,9,2,,0.00,1,,64
2013-8-16,73,62,51,57,54,48,94,73,53,30.16,30.14,30.11,10,10,9,12,2,,0.00,1,,38
2013-8-17,78,68,59,63,58,54,88,69,54,30.20,30.16,30.12,10,10,10,12,4,16,0.00,4,,47
2013-8-18,80,70,59,66,61,57,94,77,54,30.19,30.15,30.12,10,9,1,12,2,16,0.00,4,,72
2013-8-19,82,70,57,66,62,55,100,76,48,30.18,30.13,30.07,10,7,0,7,1,,0.00,1,,98
2013-8-20,84,72,60,66,64,59,100,75,48,30.16,30.12,30.08,10,7,0,8,1,,0.00,1,,163
2013-8-21,87,74,62,70,65,61,100,75,46,30.19,30.14,30.09,10,8,0,8,1,,0.00,1,,223
2013-8-22,87,76,66,72,68,64,94,75,49,30.17,30.12,30.07,10,9,0,9,2,,0.00,1,,277
2013-8-23,87,76,66,72,69,64,94,77,55,30.15,30.11,30.07,10,8,2,9,2,,0.00,1,,61
2013-8-24,87,74,62,72,65,61,100,74,43,30.25,30.20,30.14,10,8,0,10,2,,0.00,0,,118
2013-8-25,89,74,60,72,66,59,94,75,46,30.30,30.26,30.21,10,8,2,9,2,,0.00,0,,161
2013-8-26,89,79,69,73,71,70,100,78,52,30.28,30.22,30.14,10,7,1,12,4,,0.00,2,,193
2013-8-27,89,79,69,72,70,66,94,75,49,30.16,30.11,30.06,10,10,6,9,3,,0.00,1,,226
2013-8-28,89,78,66,70,67,63,94,70,43,30.11,30.07,30.04,10,9,3,12,3,20,0.00,1,,275
2013-8-29,91,78,66,72,68,64,94,70,43,30.11,30.06,30.01,10,10,5,9,2,,0.00,0,,277
2013-8-30,96,81,66,73,69,64,94,71,41,30.04,29.98,29.92,10,10,9,13,2,18,0.00,1,Thunderstorm,236
2013-8-31,96,84,73,73,71,66,89,66,37,29.92,29.87,29.81,10,10,9,13,4,18,0.00,0,,231